Hourly Data Report for October 24, 2015

All times are specified in Local Standard Time (LST). Add 1 hour to adjust for Daylight Saving Time where and when it is observed.

MONCTON INTL A
NEW BRUNSWICK

46°06'44.000" N
64°40'43.000" W
70.70 m
8103201
71705
YQM

Download Data

Hourly Data (October 2015)
Hourly Data Report for October 24, 2015
Temp Definition
°C
Dew Point Temp Definition
°C
Rel Hum Definition
%
Wind Dir Definition
10's deg

Wind Spd Definition
km/h
Visibility Definition
km
Stn Press Definition
kPa
Hmdx Definition


Wind Chill Definition


Weather Definition


TIME
00:00 Legend Double Dagger 2.6 1.6 93 32 19 19.3 101.65     Rain Showers
01:00 Legend Double Dagger 2.6 1.7 94 33 18 16.1 101.68     Rain Showers
02:00 Legend Double Dagger 2.7 2.0 95 34 16 16.1 101.77     Rain Showers
03:00 Legend Double Dagger 2.4 1.7 95 32 15 11.3 101.82     Rain Showers
04:00 Legend Double Dagger 2.1 1.4 95 30 15 19.3 101.92     LegendNANA
05:00 Legend Double Dagger 1.9 1.2 95 33 14 16.1 101.98     Rain Showers
06:00 Legend Double Dagger 1.1 0.4 95 32 10 24.1 102.01     Rain Showers
07:00 Legend Double Dagger 0.5 -0.1 96 34 11 24.1 102.02     LegendNANA
08:00 Legend Double Dagger 1.1 0.4 95 32 5 24.1 102.08     Mainly Clear
09:00 Legend Double Dagger 2.5 1.5 93 32 4 24.1 102.12     LegendNANA
10:00 Legend Double Dagger 4.2 1.9 85 4 4 24.1 102.14     LegendNANA
11:00 Legend Double Dagger 5.1 1.2 76 8 4 24.1 102.14     Mostly Cloudy
12:00 Legend Double Dagger 5.5 0.9 72 9 7 24.1 102.12     LegendNANA
13:00 Legend Double Dagger 6.1 1.3 71 36 3 24.1 102.07     LegendNANA
14:00 Legend Double Dagger 6.0 1.4 72 21 9 24.1 102.02     Mostly Cloudy
15:00 Legend Double Dagger 6.8 0.3 63 21 3 24.1 101.98     LegendNANA
16:00 Legend Double Dagger 7.7 0.7 61 14 5 24.1 101.94     LegendNANA
17:00 Legend Double Dagger 5.5 0.9 72 14 9 24.1 101.93     Mostly Cloudy
18:00 Legend Double Dagger 3.7 0.2 78 13 10 24.1 101.93     LegendNANA
19:00 Legend Double Dagger 3.5 0.9 83 15 13 24.1 101.91     LegendNANA
20:00 Legend Double Dagger 3.4 0.8 83 18 7 24.1 101.93     Mostly Cloudy
21:00 Legend Double Dagger 2.2 0.4 88 18 11 24.1 101.85     LegendNANA
22:00 Legend Double Dagger 1.9 0.4 90 17 12 24.1 101.85     LegendNANA
23:00 Legend Double Dagger 1.6 0.4 92 18 12 24.1 101.74     Mainly Clear

Notes on Data Quality.

Legend

  • E = Estimated
  • M = Missing
  • NA = Not Available
  • ‡ = Partner data that is not subject to review by the National Climate Archives
Date modified: